Home   Weather   Almere   Past weeks

Flag for Netherlands Past Weather in Almere, Netherlands — Yesterday and Last 2 Weeks

54 °F

Passing clouds.

Feels Like: 50 °F
Forecast: 54 / 58 °F
Wind: 12 mph from Southwest

Location: Amsterdam Schiphol Airport

Current Time: Oct 27, 2016 at 10:43:26 PM

Latest Report: Oct 27, 2016 at 9:55 PM

Visibility: N/A

Pressure: 30.42 "Hg

Humidity: 88%

Dew Point: 50 °F

Location of AlmereLocation

Past Weather in Almere — Graph


Almere Temperature Yesterday

Maximum temperature yesterday: 55 °F (at 3:55 PM)
Minimum temperature yesterday: 41 °F (at 7:25 AM)
Average temperature yesterday: 50 °F

High & Low Weather Summary for the Past Weeks

High66 °F (Oct 16, 2:55 PM)100% (Oct 15, 12:25 AM)30.45 "Hg (Oct 15, 12:25 AM)
Low34 °F (Oct 23, 4:55 AM)54% (Oct 23, 2:55 PM)29.65 "Hg (Oct 15, 1:25 AM)
Average50 °F87%30.02 "Hg
* Reported Oct 12 9:25 PM — Oct 27 9:25 PM, Almere, Weather by CustomWeather, © 2016

Note: Actual official high and low records may vary slightly from our data, if they occured in-between our weather recording intervals... More about our weather records


Almere Weather History for the Previous 24 Hours

Scroll right to see more
Time TempWeatherWind HumidityBarometerVisibility
9:25 PM
Thu, Oct 27
54 °FPassing clouds.10 mph88%30.42 "HgN/A
8:55 PM52 °FPassing clouds.12 mph94%30.42 "HgN/A
8:25 PM54 °FPassing clouds.10 mph88%30.42 "HgN/A
7:55 PM54 °FPassing clouds.14 mph88%30.42 "HgN/A
7:25 PM54 °FPassing clouds.10 mph88%30.42 "HgN/A
6:55 PM54 °FPassing clouds.10 mph88%30.42 "HgN/A
6:25 PM54 °FPassing clouds.12 mph88%30.42 "HgN/A
5:55 PM55 °FPassing clouds.14 mph82%30.42 "HgN/A
5:25 PM55 °FPassing clouds.14 mph82%30.42 "HgN/A
4:55 PM55 °FPassing clouds.15 mph82%30.42 "HgN/A
4:25 PM57 °FPassing clouds.16 mph77%30.42 "HgN/A
3:55 PM57 °FScattered clouds.16 mph82%30.42 "HgN/A
3:25 PM57 °FScattered clouds.15 mph82%30.42 "HgN/A
2:55 PM57 °FScattered clouds.16 mph88%30.45 "HgN/A
2:25 PM59 °FScattered clouds.16 mph82%30.45 "Hg6 mi
1:55 PM59 °FScattered clouds.15 mph82%30.45 "Hg6 mi
1:25 PM59 °FScattered clouds.14 mph82%30.45 "Hg6 mi
12:55 PM59 °FPassing clouds.13 mph82%30.45 "Hg6 mi
11:25 AM54 °FBroken clouds.13 mph94%30.45 "Hg1 mi
10:55 AM52 °FBroken clouds.14 mph100%30.45 "Hg1 mi
10:25 AM52 °FFog.10 mph100%30.45 "Hg0 mi
9:55 AM52 °FFog.9 mph94%30.42 "Hg0 mi
9:25 AM50 °FFog.10 mph100%30.42 "Hg1 mi
8:55 AM50 °FFog.9 mph94%30.42 "Hg1 mi
8:25 AM48 °FFog.10 mph100%30.42 "Hg1 mi
7:55 AM48 °FFog.7 mph100%30.42 "Hg2 mi
7:25 AM48 °FFog.7 mph100%30.42 "Hg1 mi
6:55 AM48 °FFog.7 mph100%30.39 "Hg2 mi
6:25 AM46 °FFog.6 mph100%30.39 "Hg2 mi
5:55 AM50 °FFog.6 mph94%30.39 "Hg2 mi
5:25 AM52 °FPassing clouds.8 mph94%30.39 "Hg4 mi
4:55 AM52 °FPassing clouds.8 mph94%30.39 "Hg3 mi
4:25 AM52 °FFog.8 mph100%30.39 "Hg2 mi
3:55 AM52 °FFog.8 mph100%30.39 "Hg3 mi
3:25 AM54 °FFog.8 mph94%30.39 "Hg1 mi
2:55 AM54 °FFog.9 mph94%30.39 "Hg1 mi
2:25 AM54 °FFog.10 mph94%30.39 "Hg1 mi
1:55 AM52 °FFog.9 mph100%30.39 "Hg1 mi
1:25 AM54 °FFog.12 mph94%30.36 "Hg2 mi
12:55 AM54 °FScattered showers. Fog.10 mph94%30.36 "Hg2 mi
12:25 AM54 °FLight rain. Fog.10 mph94%30.36 "Hg2 mi
11:55 PM
Wed, Oct 26
54 °FFog.12 mph94%30.36 "Hg2 mi
11:25 PM52 °FFog.10 mph94%30.39 "Hg2 mi
10:55 PM52 °FDrizzle. Fog.9 mph94%30.36 "Hg2 mi
10:25 PM52 °FFog.9 mph94%30.36 "Hg3 mi
Weather by CustomWeather, © 2016

See weather overviewHow to use our weather pages